    Observer details:
    094 Crimea-Simeis.  Observer A. Novichonok.  1.0-m f/13 reflector + CCD.
    595 Farra dIsonzo.  Observers U. Montanar, N. Moretta, E. Pettarin.
        Measurer U. Montanar.  0.40-m f/5.15 reflector + CCD.
    703 Catalina Sky Survey.  Observer D. C. Fuls.  Measurers B. M. Africano,
        E. J. Christensen, G. A. Farneth, D. C. Fuls, A. R. Gibbs, A. D. Grauer,
        H. Groeller, R. A. Kowalski, S. M. Larson, G. J. Leonard, T. A. Pruyne,
        D. Rankin, R. L. Seaman, F. C. Shelly.  0.68-m Schmidt + 10K CCD.
    718 Tooele.  Observer P. Wiggins.  0.35-m f/5.5 Schmidt-Cassegrain + CCD.
    C77 Bernezzo Observatory.  Observer A. Mantero.  0.25-m f/4.0 reflector + CCD.
    C95 SATINO Remote Observatory, Haute Provence.  Observer J. Jahn.  0.60-m
        f/3.2 Newtonian reflector + CCD.
    F51 Pan-STARRS 1, Haleakala.  Observers J. Bulger, K. Chambers, T. Lowe,
        E. Magnier, A. Schultz, M. Willman.  Measurers S. Chastel, M. Huber,
        Y. Ramanjooloo, R. Wainscoat, R. Weryk.  1.8-m Ritchey-Chretien + CCD.
    G40 Slooh.com Canary Islands Observatory.  Observer M. Suzuki.  0.43-m f/6.8
        Corrected Dall-Kirkham + CCD.
    I41 Palomar Mountain--ZTF.  Observers B. T. Bolin, Q.-Z. Ye,
        Z. T. F. Collaboration.  Measurers D. A. Duev, H.-W. Lin, A. A. Mahabal,
        F. J. Masci, Q.-Z. Ye.  1.2-m f/2.4 Schmidt.
    I52 Steward Observatory, Mt. Lemmon Station.  Observer D. C. Fuls.  Measurers
        B. M. Africano, E. J. Christensen, G. A. Farneth, D. C. Fuls, A. R. Gibbs,
        A. D. Grauer, H. Groeller, R. A. Kowalski, S. M. Larson, G. J. Leonard,
        T. A. Pruyne, D. Rankin, R. L. Seaman, F. C. Shelly.  1.0-m reflector +
        CCD.
    J69 North Observatory, Clanfield.  Observer D. Briggs.  0.41-m f/4.5
        Newtonian reflector + CCD.
    J95 Great Shefford.  Observer P. Birtwhistle.  0.41-m f/6.3
        Schmidt-Cassegrain + CCD.
    K63 G. Pascoli Observatory, Castelvecchio Pascoli.  Observer R. Bacci.
        0.41-m f/3.2 Newtonian reflector + CCD.
    L01 Visnjan Observatory, Tican.  Observers K. Korlevic, F. Valentine.
        Measurer K. Korlevic.  1.0-m f/2.9 reflector + CCD.
    L34 Galhassin Robotic Telescope, Isnello.  Observer A. Nastasi.
    P93 Space Tracking and Communications Center, JAXA.  Observers S. Okumura,
        S. Urakawa.  1.0-m f/3.0 reflector + CCD.
    W34 Squirrel Valley Observatory, Columbus.  Observer R. L. Flynn.  0.2-m
        f/7.0 Schmidt-Cassegrain + CCD.
    Z80 Northolt Branch Observatory.  Observer G. Wells.  Measurer D. Bamberger.
        0.25-m f/8.0 Ritchey-Chretien + CCD.
    
    Orbital elements:
    2019 HN3                                                 Earth MOID = 0.0137 AU
    Epoch 2019 Apr. 27.0 TT = JDT 2458600.5                 MPC
    M   3.60873              (2000.0)            P               Q
    n   0.39882961     Peri.  162.88829     -0.89967373     +0.42232798
    a   1.8278664      Node    42.64343     -0.41721119     -0.75718494
    e   0.4479084      Incl.    9.39399     -0.12853790     -0.49830718
    P   2.47           H   24.0           G   0.15           U   5
    Residuals in seconds of arc
    190414 F51  0.0   0.1+    190427 J69  0.0   0.2+    190428 G40  0.3+  0.6-
    190414 F51  0.5-  0.2+    190427 595  0.2-  0.4+    190428 C95  0.2-  0.1-
    190415 F51  0.0   0.0     190427 595  0.4-  0.2+    190428 W34  0.2+  0.4-
    190415 F51  0.2+  0.2-    190427 595  0.0   0.1+    190428 W34  0.2-  0.7-
    190415 F51  0.1+  0.2-    190427 595  0.0   0.2-    190428 703  1.3-  0.1+
    190426 I41  0.4+  0.1+    190427 595  0.1-  0.1-    190428 703  0.3+  0.7-
    190426 I41  0.7+  0.5-    190427 J95  0.1+  0.1+    190428 703  0.3+  0.5+
    190426 I41  0.0   0.2-    190427 J95  0.2-  0.0     190428 I52  0.0   0.2-
    190426 I41  0.4+  0.5-    190427 J95  0.1-  0.1+    190428 I52  0.0   0.1+
    190427 703  0.2+  0.6-    190427 J95  0.1+  0.0     190428 I52  0.1+  0.3+
    190427 703  0.3+  0.7-    190427 L01  0.0   0.1+    190428 I52  0.2-  0.2+
    190427 703  0.0   0.1-    190427 L01  0.0   0.1+    190428 K63  0.3+  0.3+
    190427 718  0.5-  1.8+    190427 L01  0.1+  0.2-    190428 K63  0.5+  0.3-
    190427 718  0.7-  0.9+    190427 L01  0.0   0.3-    190428 K63  0.0   0.1+
    190427 718  0.2+  1.0+    190427 L01  0.2+  0.1-    190428 K63  0.4-  0.5+
    190427 P93  0.2-  0.6-    190427 L01  0.1-  0.2-    190428 K63  0.0   0.0
    190427 P93  0.2+  0.2+    190427 L01  0.1-  0.1-    190429 Z80  0.3-  0.0
    190427 P93  0.6+  0.1+    190427 L01  0.2-  0.2-    190429 Z80  0.2-  0.2+
    190427 C77  0.5-  0.3-    190427 L01  0.1+  0.1-    190429 Z80  0.1+  0.3+
    190427 C77  0.8-  0.4+    190427 L01  0.1-  0.0     190429 Z80  0.3+  0.1+
    190427 C77  0.3+  0.0     190428 C95  0.1+  0.1-    190429 Z80  0.1+  0.0
    190427 J69  0.1+  0.3-    190428 G40  0.3+  0.5-    190429 Z80  0.2-  0.4+
    190427 J69  0.3+  0.3+    190428 C95  0.1-  0.2+    190429 094  0.5+  0.3-
    190427 J69  0.1-  0.2-    190428 C95  0.1-  0.1+    190429 094  0.2+  0.7-
    190427 L34  0.3-  1.2+    190428 C95  0.1+  0.2-    190429 094  0.5+  0.3-
    190427 J69  0.0   0.2-    190428 L34  0.1-  0.5-    190429 094  0.2+  0.2-
    
    Ephemeris:
    2019 HN3                 a,e,i = 1.83, 0.45, 9                   q = 1.0091
    Date    TT    R. A. (2000) Decl.     Delta      r     Elong.  Phase     V
    2019 03 30    09 22 49.5 +69 32 20   0.1370  1.0320   100.4    72.1    22.3
    ...
    2019 04 14    10 30 06.0 +72 18 55   0.07363 1.0101    93.7    82.2    21.2
    ...
    2019 04 22    13 08 05.2 +71 02 38   0.03899 1.0102    96.6    81.2    19.8
    ...
    2019 04 28    16 25 11.3 +38 55 21   0.01813 1.0157   119.5    59.6    17.5
    2019 04 29    16 49 13.0 +25 08 43   0.01675 1.0170   126.9    52.3    17.1
    2019 04 30    17 09 49.8 +09 50 27   0.01661 1.0185   132.8    46.5    16.9
    ...
    2019 05 06    18 23 28.6 -42 09 48   0.03407 1.0299   127.8    50.7    18.6
    ...
    2019 05 14    18 59 12.6 -55 41 01   0.06909 1.0515   124.9    52.0    20.2
    ...
    2019 05 29    19 08 19.1 -60 48 39   0.1380  1.1092   131.2    43.5    21.6
    
    A. U. Tomatic                (C) Copyright 2019 MPC           M.P.E.C. 2019-H86
    

    Read MPEC 2019-H85 Read MPEC 2019-H87


    MPEC number:

    Enter an MPEC number in one of the following forms:

    • 1997-B01 (the full form)
    • J97B01 (the packed version of the full form)
    • B01 (the abbreviated form)